| time (UTC) | temp C | wind direction | speed KPH | gust KPH | rain 1hr cm | rain 24hr cm | rain mn cm | humidity % | barometer mb |
| 20260901023729 | 13 | 226 | 6.4 | 12.9 | 0.00 | 0.00 | 0.00 | 91 | 1016.3 |
| 20260901022228 | 15 | 220 | 9.7 | 17.7 | 0.00 | 0.00 | 0.00 | 90 | 1016.3 |
| 20260901020728 | 15 | 228 | 9.7 | 17.7 | 0.00 | 0.00 | 0.00 | 89 | 1016.2 |
| 20260901015226 | 15 | 220 | 9.7 | 17.7 | 0.00 | 0.00 | 0.00 | 89 | 1016.1 |
| 20260901013726 | 15 | 221 | 9.7 | 17.7 | 0.00 | 0.00 | 0.00 | 89 | 1016.2 |
| 20260901012224 | 15 | 225 | 9.7 | 17.7 | 0.00 | 0.00 | 0.00 | 89 | 1016.0 |
| 20260901010724 | 15 | 220 | 9.7 | 12.9 | 0.00 | 0.00 | 0.00 | 88 | 1015.9 |
| 20260901005224 | 15 | 218 | 9.7 | 17.7 | 0.00 | 0.00 | 0.00 | 88 | 1015.9 |
| 20260901003725 | 15 | 220 | 9.7 | 12.9 | 0.00 | 0.00 | 0.00 | 88 | 1015.8 |
| 20260901002223 | 15 | 221 | 9.7 | 12.9 | 0.00 | 0.00 | 0.00 | 89 | 1015.8 |
| 20260901000723 | 13 | 219 | 9.7 | 12.9 | 0.00 | 0.00 | 0.00 | 89 | 1015.8 |
| 20260831235224 | 13 | 213 | 6.4 | 12.9 | 0.00 | 0.00 | 0.00 | 89 | 1015.8 |
| 20260831233723 | 13 | 218 | 9.7 | 12.9 | 0.00 | 0.00 | 0.00 | 88 | 1015.7 |
| 20260831232222 | 13 | 219 | 6.4 | 12.9 | 0.00 | 0.00 | 0.00 | 87 | 1015.6 |
| 20260831230722 | 13 | 217 | 9.7 | 12.9 | 0.00 | 0.00 | 0.00 | 87 | 1015.5 |
| 20260831225222 | 15 | 227 | 9.7 | 12.9 | 0.00 | 0.00 | 0.00 | 86 | 1015.6 |
| 20260831223723 | 15 | 231 | 9.7 | 17.7 | 0.00 | 0.00 | 0.00 | 85 | 1015.5 |
| 20260831222221 | 15 | 232 | 9.7 | 17.7 | 0.00 | 0.00 | 0.00 | 84 | 1015.5 |
| 20260831220721 | 15 | 235 | 9.7 | 17.7 | 0.00 | 0.00 | 0.00 | 84 | 1015.4 |
| 20260831215221 | 15 | 232 | 9.7 | 12.9 | 0.00 | 0.00 | 0.00 | 85 | 1015.2 |
| 20260831213721 | 15 | 227 | 9.7 | 12.9 | 0.00 | 0.00 | 0.00 | 84 | 1015.2 |
| 20260831212221 | 15 | 217 | 6.4 | 12.9 | 0.00 | 0.00 | 0.00 | 86 | 1014.9 |
| 20260831210721 | 15 | 217 | 6.4 | 12.9 | 0.00 | 0.00 | 0.00 | 86 | 1014.8 |
| 20260831205220 | 15 | 231 | 6.4 | 9.7 | 0.00 | 0.00 | 0.00 | 88 | 1014.6 |
| 20260831203720 | 15 | 239 | 6.4 | 12.9 | 0.00 | 0.00 | 0.00 | 87 | 1014.5 |
| 20260831202220 | 15 | 246 | 9.7 | 17.7 | 0.00 | 0.00 | 0.00 | 86 | 1014.3 |
| 20260831200720 | 15 | 247 | 12.9 | 17.7 | 0.00 | 0.00 | 0.00 | 85 | 1014.1 |
| 20260831195219 | 15 | 248 | 9.7 | 20.9 | 0.00 | 0.00 | 0.00 | 86 | 1013.9 |
| 20260831193720 | 15 | 262 | 12.9 | 20.9 | 0.00 | 0.00 | 0.00 | 84 | 1013.8 |
| 20260831192219 | 15 | 247 | 9.7 | 17.7 | 0.00 | 0.00 | 0.00 | 85 | 1013.7 |
| 20260831190719 | 16 | 248 | 17.7 | 27.4 | 0.03 | 0.00 | 0.00 | 75 | 1013.2 |
| 20260831185218 | 17 | 251 | 17.7 | 27.4 | 0.00 | 0.00 | 0.00 | 67 | 1012.7 |
| 20260831183718 | 17 | 252 | 17.7 | 27.4 | 0.00 | 0.00 | 0.00 | 68 | 1012.6 |
| 20260831182217 | 16 | 248 | 12.9 | 27.4 | 0.00 | 0.00 | 0.00 | 70 | 1012.2 |
| 20260831180717 | 17 | 251 | 17.7 | 27.4 | 0.00 | 0.00 | 0.00 | 68 | 1012.0 |
| 20260831175216 | 17 | 251 | 17.7 | 27.4 | 0.00 | 0.00 | 0.00 | 68 | 1012.0 |
| 20260831173716 | 17 | 249 | 17.7 | 27.4 | 0.00 | 0.00 | 0.00 | 65 | 1011.8 |
| 20260831172215 | 17 | 246 | 17.7 | 27.4 | 0.00 | 0.00 | 0.00 | 67 | 1011.7 |
| 20260831170716 | 17 | 254 | 17.7 | 32.2 | 0.00 | 0.00 | 0.00 | 66 | 1011.4 |
| 20260831165214 | 17 | 262 | 12.9 | 24.1 | 0.00 | 0.00 | 0.00 | 68 | 1011.3 |
| 20260831163714 | 17 | 261 | 17.7 | 24.1 | 0.00 | 0.00 | 0.00 | 71 | 1011.1 |
| 20260831162214 | 17 | 250 | 12.9 | 35.4 | 0.00 | 0.00 | 0.00 | 74 | 1011.0 |
| 20260831160714 | 17 | 235 | 20.9 | 35.4 | 0.00 | 0.00 | 0.00 | 71 | 1010.7 |
| 20260831155213 | 18 | 227 | 20.9 | 32.2 | 0.00 | 0.00 | 0.00 | 69 | 1010.6 |
| 20260831153713 | 18 | 231 | 20.9 | 32.2 | 0.00 | 0.00 | 0.00 | 71 | 1010.4 |
| 20260831152212 | 17 | 224 | 17.7 | 32.2 | 0.00 | 0.00 | 0.00 | 71 | 1010.5 |
| 20260831150712 | 17 | 228 | 17.7 | 24.1 | 0.00 | 0.00 | 0.00 | 73 | 1010.3 |
| 20260831145211 | 15 | 220 | 12.9 | 20.9 | 0.00 | 0.00 | 0.00 | 84 | 1010.1 |
| 20260831143711 | 15 | 218 | 12.9 | 27.4 | 0.00 | 0.00 | 0.00 | 86 | 1010.1 |
| 20260831142210 | 15 | 274 | 20.9 | 32.2 | 0.28 | 0.00 | 0.00 | 84 | 1010.2 |
| 20260831140711 | 16 | 280 | 17.7 | 35.4 | 0.00 | 0.00 | 0.00 | 72 | 1010.3 |
| 20260831135210 | 16 | 293 | 24.1 | 41.8 | 0.00 | 0.00 | 0.00 | 68 | 1009.9 |
| 20260831133710 | 17 | 238 | 27.4 | 41.8 | 0.03 | 0.00 | 0.00 | 63 | 1009.6 |
| 20260831132209 | 20 | 236 | 27.4 | 41.8 | 0.00 | 0.00 | 0.00 | 53 | 1009.0 |
| 20260831130709 | 20 | 226 | 24.1 | 41.8 | 0.00 | 0.00 | 0.00 | 52 | 1008.8 |
| 20260831125208 | 21 | 236 | 32.2 | 41.8 | 0.00 | 0.00 | 0.00 | 50 | 1008.6 |
| 20260831123708 | 20 | 245 | 24.1 | 35.4 | 0.00 | 0.00 | 0.00 | 59 | 1008.8 |
| 20260831122208 | 18 | 241 | 20.9 | 35.4 | 0.00 | 0.00 | 0.00 | 65 | 1008.8 |
| 20260831120707 | 18 | 245 | 24.1 | 38.6 | 0.00 | 0.00 | 0.00 | 65 | 1008.7 |
| 20260831115207 | 20 | 217 | 27.4 | 46.7 | 0.00 | 0.00 | 0.00 | 61 | 1008.7 |
| 20260831113707 | 20 | 211 | 24.1 | 41.8 | 0.00 | 0.00 | 0.00 | 61 | 1008.6 |
| 20260831112206 | 20 | 200 | 17.7 | 35.4 | 0.00 | 0.00 | 0.00 | 62 | 1008.3 |
| 20260831110706 | 20 | 206 | 20.9 | 35.4 | 0.00 | 0.00 | 0.00 | 62 | 1008.4 |
| 20260831105204 | 20 | 210 | 20.9 | 32.2 | 0.00 | 0.00 | 0.00 | 61 | 1008.5 |
| 20260831103705 | 18 | 213 | 24.1 | 41.8 | 0.00 | 0.00 | 0.00 | 67 | 1008.7 |
| 20260831102204 | 18 | 221 | 20.9 | 41.8 | 0.00 | 0.00 | 0.00 | 67 | 1008.8 |
| 20260831100705 | 20 | 219 | 20.9 | 41.8 | 0.00 | 0.00 | 0.00 | 68 | 1008.9 |
| 20260831095203 | 18 | 206 | 24.1 | 38.6 | 0.00 | 0.00 | 0.00 | 70 | 1009.0 |
| 20260831093704 | 18 | 210 | 20.9 | 35.4 | 0.00 | 0.00 | 0.00 | 71 | 1008.9 |
| 20260831092200 | 17 | 209 | 20.9 | 35.4 | 0.00 | 0.00 | 0.00 | 72 | 1009.0 |
| 20260831090700 | 17 | 213 | 24.1 | 35.4 | 0.00 | 0.00 | 0.00 | 73 | 1009.0 |
| 20260831085159 | 17 | 207 | 24.1 | 38.6 | 0.00 | 0.00 | 0.00 | 72 | 1009.0 |
| 20260831083659 | 17 | 209 | 20.9 | 38.6 | 0.00 | 0.00 | 0.00 | 73 | 1009.1 |
| 20260831082159 | 17 | 213 | 24.1 | 38.6 | 0.00 | 0.00 | 0.00 | 74 | 1008.9 |
| 20260831080658 | 17 | 212 | 20.9 | 35.4 | 0.00 | 0.00 | 0.00 | 75 | 1008.9 |
| 20260831075158 | 17 | 208 | 17.7 | 27.4 | 0.00 | 0.00 | 0.00 | 76 | 1009.1 |
| 20260831073658 | 16 | 207 | 20.9 | 32.2 | 0.00 | 0.00 | 0.00 | 78 | 1009.1 |
| 20260831072157 | 16 | 217 | 17.7 | 32.2 | 0.00 | 0.00 | 0.00 | 80 | 1009.2 |
| 20260831070656 | 16 | 213 | 20.9 | 32.2 | 0.00 | 0.00 | 0.00 | 80 | 1009.1 |
| 20260831065156 | 16 | 208 | 17.7 | 32.2 | 0.00 | 0.00 | 0.00 | 82 | 1008.9 |
| 20260831063656 | 16 | 201 | 17.7 | 32.2 | 0.00 | 0.00 | 0.00 | 82 | 1008.7 |
| 20260831062155 | 15 | 197 | 17.7 | 32.2 | 0.00 | 0.00 | 0.00 | 82 | 1008.8 |
| 20260831060655 | 15 | 198 | 17.7 | 24.1 | 0.00 | 0.00 | 0.00 | 83 | 1008.7 |
| 20260831055154 | 15 | 200 | 12.9 | 24.1 | 0.00 | 0.00 | 0.00 | 84 | 1008.7 |
| 20260831053654 | 15 | 204 | 12.9 | 27.4 | 0.00 | 0.00 | 0.00 | 85 | 1008.7 |
| 20260831052154 | 15 | 197 | 12.9 | 27.4 | 0.00 | 0.00 | 0.00 | 84 | 1008.5 |
| 20260831050654 | 15 | 194 | 12.9 | 24.1 | 0.00 | 0.00 | 0.00 | 84 | 1008.6 |
| 20260831045153 | 15 | 197 | 17.7 | 24.1 | 0.00 | 0.00 | 0.00 | 84 | 1008.6 |
| 20260831043654 | 15 | 194 | 17.7 | 24.1 | 0.00 | 0.00 | 0.00 | 84 | 1008.5 |
| 20260831042153 | 15 | 186 | 12.9 | 20.9 | 0.00 | 0.00 | 0.00 | 83 | 1008.5 |
| 20260831040653 | 15 | 187 | 9.7 | 20.9 | 0.00 | 0.00 | 0.00 | 83 | 1008.6 |
| 20260831035153 | 15 | 186 | 9.7 | 17.7 | 0.00 | 0.00 | 0.00 | 84 | 1008.8 |
| 20260831033653 | 15 | 181 | 9.7 | 12.9 | 0.00 | 0.00 | 0.00 | 86 | 1008.7 |
| 20260831032153 | 15 | 181 | 6.4 | 9.7 | 0.00 | 0.00 | 0.00 | 87 | 1008.6 |
| 20260831030653 | 15 | 189 | 6.4 | 9.7 | 0.00 | 0.00 | 0.00 | 87 | 1008.7 |
| 20260831025152 | 15 | 193 | 6.4 | 12.9 | 0.00 | 0.00 | 0.00 | 86 | 1008.7 |